• In Portugal
  • List of Countries
  • For 7 days
  • Water Temperature
  • Satellite Maps
  • Weather Map
  • Weather Widgets
  • user-avatar
    Login

    Hourly Weather Kapan

    Today, 18 September, Tuesday

    Time Temperature Precipitation Wind Pressure Humidity
    00:00 +20°C° 0.1 mm 1 mps 685 mmHg 79%
    01:00 +20°C° 0.1 mm 1 mps 685 mmHg 80%
    02:00 +19°C° 0.1 mm 1 mps 686 mmHg 81%
    03:00 +19°C° 0 mm 1 mps 685 mmHg 83%
    04:00 +19°C° 0.1 mm 1 mps 686 mmHg 83%
    05:00 +19°C° 0.1 mm 1 mps 686 mmHg 83%
    06:00 +19°C° 0.1 mm 1 mps 686 mmHg 83%
    07:00 +19°C° 0.1 mm 2 mps 686 mmHg 76%
    08:00 +20°C° 0.1 mm 2 mps 687 mmHg 70%
    09:00 +21°C° 0 mm 3 mps 687 mmHg 64%
    10:00 +22°C° 0.1 mm 3 mps 687 mmHg 61%
    11:00 +24°C° 0.1 mm 3 mps 687 mmHg 58%
    12:00 +24°C° 0.1 mm 3 mps 687 mmHg 55%
    13:00 +24°C° 0.1 mm 3 mps 687 mmHg 54%
    14:00 +25°C° 0.1 mm 3 mps 686 mmHg 53%
    15:00 +25°C° 0 mm 3 mps 686 mmHg 51%
    16:00 +24°C° 0.1 mm 3 mps 686 mmHg 59%
    17:00 +22°C° 0.1 mm 3 mps 686 mmHg 66%
    18:00 +20°C° 0.1 mm 3 mps 686 mmHg 74%
    19:00 +20°C° 0.1 mm 3 mps 686 mmHg 77%
    20:00 +19°C° 0.1 mm 3 mps 686 mmHg 81%
    21:00 +18°C° 0.1 mm 2 mps 686 mmHg 84%
    22:00 +18°C° 0.1 mm 2 mps 687 mmHg 85%
    23:00 +18°C° 0.1 mm 2 mps 687 mmHg 86%

    Tomorrow, 19 September, Wednesday

    Time Temperature Precipitation Wind Pressure Humidity
    00:00 +18°C° 0.1 mm 2 mps 687 mmHg 87%
    01:00 +17°C° 0 mm 2 mps 687 mmHg 88%
    02:00 +17°C° 0 mm 2 mps 687 mmHg 89%
    03:00 +17°C° 0 mm 2 mps 687 mmHg 89%
    04:00 +18°C° 0 mm 1 mps 687 mmHg 89%
    05:00 +16°C° 0 mm 1 mps 687 mmHg 89%
    06:00 +16°C° 0 mm 1 mps 687 mmHg 89%
    07:00 +18°C° 0 mm 2 mps 688 mmHg 82%
    08:00 +19°C° 0 mm 2 mps 688 mmHg 74%
    09:00 +20°C° 0 mm 2 mps 688 mmHg 66%
    10:00 +21°C° 0 mm 2 mps 688 mmHg 62%
    11:00 +22°C° 0 mm 3 mps 688 mmHg 58%
    12:00 +24°C° 0 mm 3 mps 688 mmHg 54%
    13:00 +24°C° 0.1 mm 3 mps 688 mmHg 54%
    14:00 +24°C° 0.1 mm 3 mps 687 mmHg 53%
    15:00 +24°C° 0.1 mm 3 mps 687 mmHg 52%
    16:00 +22°C° 0.2 mm 3 mps 687 mmHg 59%
    17:00 +21°C° 0.2 mm 3 mps 686 mmHg 65%
    18:00 +19°C° 0.2 mm 2 mps 686 mmHg 72%
    19:00 +19°C° 0.1 mm 2 mps 687 mmHg 75%
    20:00 +18°C° 0.1 mm 2 mps 687 mmHg 78%
    21:00 +18°C° 0.1 mm 2 mps 687 mmHg 82%
    22:00 +17°C° 0 mm 2 mps 687 mmHg 82%
    23:00 +18°C° 0 mm 1 mps 688 mmHg 83%

    Day after tomorrow, 20 September, Thursday

    Time Temperature Precipitation Wind Pressure Humidity
    00:00 +18°C° 0 mm 1 mps 688 mmHg 83%
    01:00 +18°C° 0 mm 1 mps 688 mmHg 84%
    02:00 +16°C° 0 mm 1 mps 688 mmHg 85%
    03:00 +16°C° 0 mm 1 mps 688 mmHg 85%
    04:00 +16°C° 0.1 mm 1 mps 688 mmHg 86%
    05:00 +16°C° 0.1 mm 1 mps 688 mmHg 86%
    06:00 +16°C° 0.1 mm 1 mps 688 mmHg 86%
    07:00 +17°C° 0.1 mm 2 mps 688 mmHg 79%
    08:00 +18°C° 0.1 mm 2 mps 689 mmHg 71%
    09:00 +20°C° 0.1 mm 2 mps 689 mmHg 64%
    10:00 +21°C° 0.1 mm 3 mps 689 mmHg 61%
    11:00 +21°C° 0.1 mm 3 mps 689 mmHg 59%
    12:00 +22°C° 0.1 mm 3 mps 689 mmHg 56%
    13:00 +22°C° 0 mm 3 mps 689 mmHg 56%
    14:00 +22°C° 0 mm 3 mps 688 mmHg 56%
    15:00 +22°C° 0 mm 3 mps 688 mmHg 56%
    16:00 +21°C° 0 mm 3 mps 688 mmHg 60%
    17:00 +20°C° 0 mm 3 mps 687 mmHg 64%
    18:00 +19°C° 0 mm 2 mps 687 mmHg 68%
    19:00 +19°C° 0 mm 2 mps 687 mmHg 71%
    20:00 +18°C° 0 mm 2 mps 688 mmHg 74%
    21:00 +18°C° 0 mm 1 mps 688 mmHg 77%
    22:00 +18°C° 0 mm 1 mps 688 mmHg 77%
    23:00 +16°C° 0 mm 1 mps 688 mmHg 78%

    21 September, Friday

    Time Temperature Precipitation Wind Pressure Humidity
    00:00 +16°C° 0 mm 1 mps 688 mmHg 79%
    01:00 +16°C° 0 mm 1 mps 687 mmHg 79%
    02:00 +16°C° 0 mm 1 mps 687 mmHg 79%
    03:00 +15°C° 0 mm 1 mps 687 mmHg 79%
    04:00 +15°C° 0 mm 1 mps 687 mmHg 79%
    05:00 +15°C° 0 mm 1 mps 687 mmHg 79%
    06:00 +15°C° 0 mm 1 mps 687 mmHg 79%
    07:00 +18°C° 0 mm 1 mps 688 mmHg 70%
    08:00 +19°C° 0 mm 2 mps 688 mmHg 62%
    09:00 +21°C° 0 mm 2 mps 689 mmHg 54%
    10:00 +24°C° 0 mm 2 mps 688 mmHg 50%
    11:00 +25°C° 0 mm 2 mps 688 mmHg 46%
    12:00 +26°C° 0 mm 3 mps 688 mmHg 42%
    13:00 +26°C° 0 mm 3 mps 688 mmHg 41%
    14:00 +27°C° 0 mm 3 mps 687 mmHg 40%
    15:00 +27°C° 0 mm 3 mps 687 mmHg 40%
    16:00 +26°C° 0 mm 3 mps 687 mmHg 46%
    17:00 +24°C° 0 mm 2 mps 687 mmHg 53%
    18:00 +21°C° 0 mm 2 mps 686 mmHg 59%
    19:00 +20°C° 0 mm 2 mps 687 mmHg 64%
    20:00 +21°C° 0 mm 1 mps 687 mmHg 69%
    21:00 +20°C° 0 mm 1 mps 687 mmHg 74%
    22:00 +20°C° 0 mm 1 mps 687 mmHg 74%
    23:00 +19°C° 0 mm 1 mps 687 mmHg 75%

    22 September, Saturday

    Time Temperature Precipitation Wind Pressure Humidity
    00:00 +19°C° 0 mm 1 mps 687 mmHg 75%
    01:00 +19°C° 0 mm 1 mps 687 mmHg 75%
    02:00 +19°C° 0 mm 1 mps 687 mmHg 76%
    03:00 +18°C° 0 mm 1 mps 687 mmHg 76%
    04:00 +18°C° 0 mm 1 mps 687 mmHg 76%
    05:00 +18°C° 0 mm 1 mps 687 mmHg 77%
    06:00 +18°C° 0 mm 1 mps 687 mmHg 77%
    07:00 +20°C° 0 mm 1 mps 688 mmHg 70%
    08:00 +21°C° 0 mm 2 mps 688 mmHg 62%
    09:00 +24°C° 0 mm 2 mps 688 mmHg 54%
    10:00 +25°C° 0 mm 2 mps 688 mmHg 50%
    11:00 +27°C° 0 mm 3 mps 688 mmHg 45%
    12:00 +28°C° 0 mm 3 mps 688 mmHg 40%
    13:00 +28°C° 0 mm 3 mps 687 mmHg 40%
    14:00 +28°C° 0 mm 3 mps 687 mmHg 40%
    15:00 +28°C° 0 mm 3 mps 686 mmHg 40%
    16:00 +27°C° 0.1 mm 3 mps 686 mmHg 49%
    17:00 +25°C° 0.1 mm 3 mps 686 mmHg 57%
    18:00 +23°C° 0.1 mm 2 mps 686 mmHg 65%
    19:00 +23°C° 0.1 mm 2 mps 686 mmHg 71%
    20:00 +21°C° 0.1 mm 2 mps 686 mmHg 76%
    21:00 +21°C° 0.1 mm 1 mps 686 mmHg 81%
    22:00 +21°C° 0.1 mm 1 mps 686 mmHg 82%
    23:00 +20°C° 0.1 mm 1 mps 686 mmHg 83%

    23 September, Sunday

    Time Temperature Precipitation Wind Pressure Humidity
    00:00 +20°C° 0.1 mm 1 mps 686 mmHg 84%
    01:00 +20°C° 0 mm 1 mps 686 mmHg 84%
    02:00 +20°C° 0 mm 1 mps 686 mmHg 84%
    03:00 +19°C° 0 mm 1 mps 686 mmHg 84%
    04:00 +19°C° 0 mm 1 mps 686 mmHg 84%
    05:00 +19°C° 0 mm 1 mps 686 mmHg 84%
    06:00 +19°C° 0 mm 1 mps 686 mmHg 85%
    07:00 +21°C° 0 mm 1 mps 686 mmHg 75%
    08:00 +22°C° 0 mm 1 mps 686 mmHg 66%
    09:00 +24°C° 0 mm 2 mps 686 mmHg 57%
    10:00 +25°C° 0 mm 2 mps 686 mmHg 52%
    11:00 +27°C° 0 mm 2 mps 686 mmHg 46%
    12:00 +28°C° 0 mm 3 mps 686 mmHg 41%
    13:00 +28°C° 0 mm 3 mps 685 mmHg 41%
    14:00 +29°C° 0 mm 3 mps 685 mmHg 40%
    15:00 +29°C° 0 mm 3 mps 684 mmHg 40%
    16:00 +27°C° 0.1 mm 3 mps 684 mmHg 47%
    17:00 +25°C° 0.1 mm 2 mps 683 mmHg 55%
    18:00 +24°C° 0.1 mm 2 mps 683 mmHg 62%
    19:00 +23°C° 0 mm 1 mps 683 mmHg 67%
    20:00 +22°C° 0 mm 1 mps 684 mmHg 71%
    21:00 +21°C° 0 mm 1 mps 684 mmHg 76%
    22:00 +21°C° 0.1 mm 1 mps 684 mmHg 75%
    23:00 +21°C° 0.1 mm 1 mps 684 mmHg 75%
    Show more